Hourly Data Report for October 29, 2012

All times are specified in Local Standard Time (LST). Add 1 hour to adjust for Daylight Saving Time where and when it is observed.

ST LEONARD CS
NEW BRUNSWICK

47°09'28.050" N
67°49'55.014" W
245.00 m
810I001
71019
WIY

Download Data

Hourly Data (October 2012)
Hourly Data Report for October 29, 2012
Temp Definition
°C
Dew Point Temp Definition
°C
Rel Hum Definition
%
Wind Dir Definition
10's deg

Wind Spd Definition
km/h
Visibility Definition
km
Stn Press Definition
kPa
Hmdx Definition


Wind Chill Definition


Weather Definition


TIME
00:00 10.3 8.4 88 5 9   98.94     LegendNANA
01:00 10.4 8.5 88 4 9   98.90     LegendNANA
02:00 10.4 8.7 89 5 9   98.86     LegendNANA
03:00 10.6 8.9 89 5 9   98.81     LegendNANA
04:00 10.9 8.9 87 6 11   98.80     LegendNANA
05:00 10.8 8.9 88 6 9   98.78     LegendNANA
06:00 10.8 8.6 86 7 15   98.71     LegendNANA
07:00 10.4 8.3 87 5 13   98.74     LegendNANA
08:00 10.8 8.6 86 6 11   98.78     LegendNANA
09:00 11.5 8.9 84 5 9   98.82     LegendNANA
10:00 12.1 9.3 83 6 9   98.79     LegendNANA
11:00 13.0 9.8 81 6 9   98.76     LegendNANA
12:00 14.2 10.9 81 8 11   98.72     LegendNANA
13:00 15.0 11.2 78 8 15   98.70     LegendNANA
14:00 15.6 11.1 75 8 13   98.67     LegendNANA
15:00 15.5 10.6 73 10 19   98.64     LegendNANA
16:00 14.7 10.2 74 8 17   98.65     LegendNANA
17:00 13.6 9.8 78 9 19   98.68     LegendNANA
18:00 12.9 10.0 83 9 20   98.71     LegendNANA
19:00 12.8 10.1 84 8 13   98.72     LegendNANA
20:00 12.7 9.8 82 8 17   98.72     LegendNANA
21:00 12.5 9.3 81 8 20   98.61     LegendNANA
22:00 11.8 8.8 82 9 26   98.60     LegendNANA
23:00 11.7 8.5 81 9 24   98.58     LegendNANA

Notes on Data Quality.

Legend

  • E = Estimated
  • M = Missing
  • NA = Not Available
  • ‡ = Partner data that is not subject to review by the National Climate Archives
Date modified: